Main page
METAR-TAF:

METAR-TAF

Airports :

Williamson County Regional Airport

Marion, Illinois, United States

latitude: 37-45-01N, longitude: 089-00-04W, elevation: 472 ft

Current weather observation

The report was made 44 minutes ago, at 04:15 UTC
Calm wind
Temperature 77°F
Humidity 83%
Pressure 30.26 in. Hg
Visibility: 10 miles
Clear sky

METAR: KMWA 200415Z AUTO 00000KT 10SM CLR 25/22 A3026 RMK AO2 T02480217

Time: 23:59 (04:59 UTC)


TAF: missing

Weather observations and forecasts of more than 4000 airports (METAR and TAF reports).

The available stations are represented by yellow and red dots on the map.

Hover mouse over dot to see the name of the station.

Then click to see weather observations and forecasts.

To change the map : click on the green buttons with a black cross to zoom in, on the green button with a dash to zoom out, or on the green arrows for adjacent maps.


METAR-TAF: